Helicity
585 595 178 220 195 188 148 134 99 65 76 74 75 79 82 80 77 95 77 70 62 51 46 44 40 40 46 43 44 43 43 40 37 35 30 36 35 33 30 30 29 28 28
398 713 613 234 207 214 175 146 107 73 97 97 101 96 97 102 94 101 103 91 73 70 50 50 44 45 49 48 46 44 46 49 49 39 31 34 36 33 31 34 28 28 31
17 493 497 725 188 252 245 199 136 111 100 108 109 121 124 113 112 75 106 106 103 96 67 53 50 52 53 53 55 46 44 51 49 44 35 30 34 36 33 28 31 32 30
-57 156 416 641 592 279 303 282 184 162 118 111 122 130 134 129 126 84 99 98 93 92 87 76 61 60 57 56 52 49 47 40 38 35 34 35 31 28 28 28 32 37 34
-51 -210 263 647 772 259 342 331 223 167 149 132 128 136 140 146 135 95 93 106 107 106 94 94 76 70 65 56 52 46 41 34 31 29 29 29 24 25 25 25 31 34 36
-167 -107 -151 403 713 491 351 325 261 199 171 171 171 158 173 177 176 142 113 113 113 118 131 106 102 78 61 49 43 41 39 34 32 31 32 34 34 29 30 31 30 31 36
-300 -364 -372 -68 387 480 310 373 318 253 212 201 284 337 309 272 172 153 128 115 111 106 121 113 87 64 81 49 35 38 36 35 37 36 36 36 38 39 37 33 31 33 30
-454 -432 -188 -177 60 493 559 289 316 372 293 347 333 358 258 244 240 199 183 146 126 121 111 88 79 78 80 70 53 45 39 38 39 38 39 38 37 42 41 38 32 31 34
-311 -471 -278 -102 -70 185 527 205 371 362 458 331 289 298 232 145 218 232 259 193 154 141 134 110 101 101 95 82 100 92 70 39 44 46 44 43 41 42 43 34 35 39 44
-23 -215 -227 -144 5 -84 166 400 215 442 492 430 299 274 186 171 225 182 188 174 170 148 135 134 119 107 102 99 97 82 87 82 67 56 47 44 42 40 35 36 44 43 49
39 22 -45 -134 12 -109 53 160 164 339 443 451 406 315 269 260 174 185 197 252 198 172 144 130 131 121 113 113 116 110 103 81 65 54 46 43 40 35 35 33 41 43 50
26 88 74 45 9 -181 -11 121 150 182 320 413 347 348 413 415 291 275 207 162 254 190 179 149 128 133 131 121 112 109 108 84 63 54 47 44 38 41 38 39 41 46 47
-3 78 151 120 -109 27 -82 131 104 200 242 294 420 383 383 359 310 316 216 169 164 204 157 138 137 142 145 140 125 133 122 89 75 63 51 48 41 46 52 51 50 48 49
0 68 108 123 197 162 70 -15 72 198 239 270 228 382 392 359 359 343 325 265 176 175 203 162 174 166 149 153 148 134 133 100 87 73 58 52 60 80 93 77 60 51 57
-5 46 83 111 152 281 65 -16 65 188 280 318 258 301 387 405 416 372 283 186 196 174 147 155 177 154 179 172 172 176 146 117 105 95 79 71 95 90 83 75 64 54 56
54 25 74 90 131 226 271 64 46 169 350 341 377 332 265 302 366 406 349 221 185 167 174 215 199 168 172 190 181 183 157 147 116 103 93 95 93 86 74 71 56 49 58
53 51 51 81 105 168 198 298 115 99 189 261 324 384 365 382 309 374 389 315 238 219 232 249 254 220 182 210 213 171 163 170 149 95 104 113 100 82 79 62 58 65 63
33 55 47 58 92 128 141 306 142 45 96 273 301 370 376 433 297 364 420 386 283 252 241 220 210 216 206 181 183 177 163 145 140 112 106 114 102 82 71 70 74 74 81
54 39 40 41 75 103 169 216 314 189 63 134 290 320 465 490 399 432 465 384 369 294 252 214 217 252 270 231 205 173 149 166 164 168 120 117 87 70 76 73 75 97 120
58 45 30 31 63 67 132 121 346 306 98 113 246 411 428 458 287 334 415 384 509 370 285 286 309 285 270 264 262 215 176 163 169 152 117 113 104 83 79 82 108 145 141
61 53 31 17 42 47 58 72 136 258 153 125 150 357 374 422 350 276 343 312 312 383 392 320 263 343 344 300 199 198 230 161 147 151 128 129 114 97 111 124 150 158 128
57 54 45 11 28 23 90 156 138 235 483 138 153 271 336 337 371 263 232 228 346 379 320 354 293 271 280 298 266 222 218 173 150 135 169 187 136 148 148 143 155 151 99
43 54 46 15 6 25 126 175 169 118 273 268 211 165 315 343 318 304 289 288 244 243 245 309 294 287 297 241 222 144 168 200 181 171 214 154 152 130 138 130 137 103 94
33 37 46 24 -9 -1 142 163 155 64 119 489 184 237 294 322 296 287 287 223 195 229 202 213 200 164 164 153 154 196 207 245 280 211 187 149 138 138 107 128 99 95 89
29 42 32 30 -5 -5 112 141 84 -46 48 338 202 234 291 379 333 316 263 237 251 200 187 172 113 64 130 146 218 286 284 280 226 195 130 143 131 120 102 120 102 99 53
34 35 37 41 39 -1 88 172 101 -128 19 239 224 202 286 338 299 312 259 254 210 173 170 125 121 120 159 131 171 209 234 229 246 175 119 158 120 120 114 117 100 79 45
Wind_Speed
55 62 65 57 57 52 49 45 41 44 44 39 37 36 32 30 24 18 14 11 9 9 12 15 18 20 22 25 27 28 30 32 34 37 39 41 42 44 45 46 47 49 51
58 56 53 62 64 57 54 47 45 45 42 43 41 39 36 33 25 18 16 15 13 8 9 12 15 17 19 22 24 25 27 29 31 34 37 39 41 42 44 46 47 48 51
58 47 59 60 79 65 58 50 46 43 41 40 41 40 39 34 28 22 21 17 15 14 11 10 12 15 18 20 22 24 25 27 28 31 34 37 39 41 43 44 46 48 49
62 54 64 63 66 68 63 55 52 47 44 43 41 40 38 37 31 24 23 22 20 16 18 11 11 12 15 17 19 21 23 25 27 29 32 35 37 39 42 44 46 48 50
63 57 59 65 66 71 66 62 57 53 49 45 43 40 40 39 35 27 23 25 23 19 17 15 13 13 14 15 16 18 20 22 24 27 29 32 35 38 41 44 46 49 52
72 74 71 66 66 61 74 69 62 58 53 47 42 42 42 42 41 37 29 28 25 22 22 17 16 16 14 13 14 15 17 19 21 24 27 30 34 38 41 44 47 50 54
74 75 62 64 68 70 78 74 67 61 57 49 43 40 44 49 48 47 38 31 26 27 24 20 17 16 14 14 12 12 14 16 19 22 25 28 32 37 40 44 47 51 55
78 78 79 74 65 72 69 79 74 68 62 55 56 48 55 56 57 52 46 40 33 28 24 20 16 19 13 11 11 10 11 14 16 19 23 27 31 36 41 45 48 51 55
79 79 80 78 75 71 74 83 81 77 70 63 57 56 58 63 52 56 54 48 40 35 32 29 26 25 21 16 13 11 14 12 13 17 21 26 32 37 41 45 48 51 55
82 80 84 85 80 72 78 77 89 83 76 77 67 72 58 50 56 58 62 59 51 46 39 35 32 29 25 22 15 12 8 11 14 17 21 26 32 37 40 45 48 51 54
86 84 86 84 83 77 78 85 85 89 86 82 81 76 70 58 56 56 59 58 59 55 47 43 36 33 28 23 19 15 10 10 13 17 22 27 32 36 40 44 47 52 54
89 87 84 88 89 80 81 80 87 96 92 88 85 79 77 71 67 59 59 53 60 58 52 47 42 35 29 25 21 18 15 15 16 20 24 30 32 36 40 44 48 53 57
93 91 88 89 91 93 83 82 85 92 95 100 90 86 80 77 65 62 56 50 53 52 57 56 48 40 34 29 27 22 19 17 19 24 27 30 33 36 41 46 49 53 59
94 93 95 93 93 93 97 94 86 93 97 92 102 85 84 79 70 64 60 53 52 52 50 51 47 43 37 33 30 25 25 23 22 22 25 31 33 39 43 47 51 52 58
92 95 96 97 95 96 93 97 93 94 97 96 91 99 88 83 75 69 62 57 54 60 58 52 48 43 41 36 33 29 26 24 23 24 26 32 35 38 44 47 49 51 56
95 96 98 97 98 96 95 94 97 91 93 98 92 94 90 81 79 77 70 63 60 56 57 50 47 41 37 38 34 31 29 27 24 25 25 30 35 38 41 45 47 50 55
95 98 99 100 101 100 97 96 94 89 89 92 98 90 96 86 76 77 74 70 65 58 55 52 44 42 39 36 35 32 30 29 29 27 27 31 34 37 41 42 46 50 54
94 97 100 101 102 103 101 99 99 90 84 93 93 91 92 87 84 81 74 73 65 58 55 53 49 44 43 37 34 31 35 29 30 29 29 30 34 37 38 42 45 47 56
94 96 101 103 103 105 105 105 102 101 96 86 89 92 89 90 92 85 79 74 70 63 56 55 51 44 44 36 34 32 32 32 32 32 29 28 29 31 34 38 40 48 52
93 95 100 105 105 106 106 107 103 104 102 95 92 89 83 88 92 87 87 86 77 73 64 61 58 47 43 39 37 33 33 32 30 29 30 29 28 30 33 35 39 44 53
92 94 97 101 103 106 104 106 105 107 102 94 88 89 83 78 86 92 93 87 83 77 76 69 61 55 45 38 36 30 32 29 29 31 26 27 25 29 29 31 38 46 46
92 94 96 101 104 105 106 111 112 108 103 95 91 82 85 86 82 85 90 81 76 72 77 70 64 60 46 45 38 34 27 28 37 30 28 23 21 23 29 38 43 41 43
91 94 97 100 105 106 107 110 114 115 117 106 97 97 78 77 73 77 77 81 75 71 65 67 68 64 51 44 35 32 30 35 34 23 22 22 17 24 32 40 39 40 43
91 93 96 99 104 105 108 111 114 115 118 113 109 99 89 88 82 72 70 81 76 67 64 58 50 50 40 36 34 37 29 29 26 22 19 23 22 29 30 34 36 35 40
92 93 95 98 103 107 105 109 108 113 121 118 112 102 91 83 80 76 70 72 76 72 63 57 56 56 51 42 33 31 30 26 31 26 16 25 26 32 35 32 31 34 41
93 93 95 97 101 106 103 106 107 110 120 119 111 101 95 87 78 76 75 73 70 75 56 61 63 53 48 33 26 37 30 24 31 29 20 24 25 30 37 31 31 35 41
Wind_Direction
272 265 243 236 237 235 238 239 242 245 245 246 246 249 251 257 264 275 279 286 316 6 29 35 36 40 41 45 47 44 44 44 45 49 51 50 48 46 41 40 45 40 35
274 267 267 237 237 233 237 237 239 243 245 245 245 247 249 253 260 271 272 273 291 333 358 20 29 35 37 40 39 39 37 34 30 33 46 42 43 40 32 23 35 38 30
277 268 265 259 241 232 233 235 236 242 244 244 244 246 248 252 257 264 265 269 282 296 320 1 15 29 34 38 36 37 31 28 25 34 39 40 35 34 30 28 26 31 32
271 272 266 266 260 229 230 229 235 238 241 243 243 245 247 250 255 259 260 265 273 284 292 324 350 11 19 24 30 32 28 27 23 30 31 34 28 25 22 22 18 21 22
270 266 268 265 261 236 229 229 234 235 238 241 243 244 247 249 252 256 257 263 269 277 289 299 317 335 351 10 18 20 25 27 27 28 28 27 24 17 15 14 15 12 11
264 266 265 264 262 257 229 231 231 234 236 237 240 243 247 250 251 255 256 261 265 270 282 289 301 315 331 349 9 20 25 30 30 30 27 21 15 11 10 8 5 5 3
268 265 264 267 264 253 244 228 230 230 233 232 235 245 252 254 251 253 256 259 260 265 273 280 290 302 311 327 347 4 16 21 23 26 24 20 14 7 5 4 2 1 359
265 266 265 264 271 259 256 229 229 230 232 227 235 240 248 252 252 254 255 259 262 265 267 270 274 291 306 311 325 343 359 7 16 22 17 11 8 3 359 358 359 359 358
267 265 264 261 265 262 253 244 229 228 227 230 229 245 247 252 247 254 255 258 261 263 266 268 274 281 290 301 312 322 331 350 10 13 9 3 358 356 356 354 356 359 358
267 268 265 260 263 267 258 258 237 228 228 230 235 244 251 252 251 254 254 255 260 262 263 265 268 272 278 286 298 307 313 336 349 355 355 352 350 350 351 351 353 355 358
268 265 264 261 260 260 260 260 243 234 232 232 236 238 245 249 251 257 258 253 256 260 262 264 265 268 270 276 287 294 299 307 325 337 339 341 343 345 346 348 350 351 355
267 267 267 261 259 260 260 263 250 238 237 236 237 237 239 243 247 254 260 255 254 257 259 262 263 265 267 270 275 281 280 293 308 320 328 331 335 339 342 344 346 348 350
268 270 270 265 262 261 261 262 257 241 240 241 235 236 239 243 248 250 257 257 262 262 261 260 262 264 265 269 272 272 277 282 296 310 319 325 329 334 338 340 344 347 347
271 272 269 267 264 261 259 260 265 247 241 243 241 235 239 240 244 246 252 253 262 264 265 267 258 261 263 265 270 267 280 280 289 301 312 317 326 331 335 338 339 345 346
273 271 269 267 266 263 261 260 261 251 244 242 244 240 241 239 241 242 248 251 257 261 263 265 269 259 260 264 267 270 274 279 282 295 305 313 322 328 330 334 339 342 344
274 272 269 267 264 264 262 261 261 258 248 242 241 241 240 241 241 240 244 249 257 263 265 270 267 270 262 265 267 270 276 280 284 291 301 311 318 324 329 333 337 340 343
274 272 269 266 264 262 260 259 260 258 253 245 241 242 240 242 240 241 241 247 251 258 261 268 272 273 266 268 272 270 276 279 288 290 299 308 316 321 327 334 336 340 344
277 272 269 267 264 262 259 258 255 257 253 248 243 242 242 242 240 243 240 243 247 254 261 262 267 273 273 272 273 271 274 280 288 293 296 305 314 319 326 331 337 342 343
279 274 270 267 265 261 259 256 256 257 250 250 247 244 245 240 240 238 238 240 245 250 257 262 265 270 275 275 274 278 276 283 290 294 300 308 315 323 331 336 342 343 347
282 277 270 268 265 262 259 255 254 255 250 249 250 248 246 243 237 241 238 239 242 247 255 257 263 264 269 274 275 275 281 285 286 293 299 309 318 326 333 340 345 350 347
285 279 273 267 266 262 259 254 251 251 254 248 252 250 247 244 244 238 238 240 243 243 248 252 252 259 260 266 266 275 283 284 287 293 300 310 321 328 339 347 350 350 355
286 279 274 269 265 263 259 253 252 253 255 246 248 251 249 246 246 240 239 237 237 237 238 245 248 251 256 262 267 268 271 275 284 287 296 310 329 338 344 343 347 356 359
290 281 275 271 266 263 260 257 252 250 247 248 245 245 248 246 240 239 237 235 238 239 233 236 242 250 249 255 256 256 261 272 282 295 296 308 340 339 344 344 353 357 1
291 284 278 271 266 264 261 258 254 251 247 245 238 241 244 242 239 236 235 233 235 235 236 236 231 236 238 238 246 256 256 269 288 295 300 315 334 338 349 355 356 2 5
292 287 280 274 267 264 262 258 255 249 245 243 236 238 241 242 240 232 229 230 232 234 233 234 235 238 238 241 243 249 251 257 275 287 298 319 329 337 343 355 3 5 3
291 289 281 277 270 265 262 258 255 249 245 242 238 236 238 239 237 229 229 228 226 225 221 230 232 232 233 234 227 251 246 238 270 286 292 312 330 337 341 353 0 3 5